{"data":{"norad_id":63828,"epoch":"2026-09-20T22:14:42.032832Z","epoch_age_seconds":112963,"freshness":"FRESH","line1":"1 63828U 25092AA  26263.92687538  .00016504  00000+0  60772-3 0  9992","line2":"2 63828  43.0006 149.9402 0001588 284.9565  75.1111 15.27590276 78524","mean_motion":15.27590276,"eccentricity":0.0001588,"inclination_deg":43.0006,"raan_deg":149.9402,"arg_perigee_deg":284.9565,"mean_anomaly_deg":75.1111,"bstar":0.00060772,"rev_number":7852,"period_min":94.266114587391,"perigee_km":481.92877470558,"apogee_km":484.10787763717,"semimajor_km":6861.1553261714,"source":"CELESTRAK","updated_at":"2026-09-21T09:00:35.109097Z"}}